User: anonymous   Login
Location: Arrington
(35.8681°N, 86.7092°W)
Time: 08:33:28
(UTC+00:00)
Language:

Cosmos 2322 - Orbit

View from above orbital plane
View from above orbital plane
View from above satellite
View from above satellite

Ground track
Ground track

The orbit data is extracted from the following two-line orbital elements,

1 23704U 95058A   20057.62201306  .00000332  00000-0  20200-3 0  9992
2 23704  70.9854 140.3673 0008359  36.8040 323.3654 14.13416031254934
Epoch (UTC): 26 February 2020 14:55:41
Eccentricity: 0.0008359
inclination: 70.9854°
perigee height: 841 km
apogee height: 854 km
right ascension of ascending node: 140.3673°
argument of perigee: 36.8040°
revolutions per day: 14.13416031
mean anomaly at epoch: 323.3654°
orbit number at epoch: 25493

The dashed part of the orbit path shows where the satellite is in the earth's shadow,  

DLR